TimeEDT,TemperatureF,Dew PointF,Humidity,Sea Level PressureIn,VisibilityMPH,Wind Direction,Wind SpeedMPH,Gust SpeedMPH,PrecipitationIn,Events,Conditions,WindDirDegrees,DateUTC
12:15 AM,73.6,65.8,77,30.03,10.0,SSE,3.5,-,N/A,,Scattered Clouds,150,2013-08-31 04:15:00
12:35 AM,73.4,65.8,77,30.03,10.0,SSE,4.6,-,N/A,,Mostly Cloudy,150,2013-08-31 04:35:00
12:55 AM,73.9,65.7,75,30.03,10.0,SSE,3.5,-,N/A,,Scattered Clouds,150,2013-08-31 04:55:00
1:15 AM,73.9,65.3,74,30.03,10.0,South,3.5,-,N/A,,Scattered Clouds,170,2013-08-31 05:15:00
1:35 AM,72.9,66.0,79,30.03,10.0,South,3.5,-,N/A,,Mostly Cloudy,170,2013-08-31 05:35:00
1:55 AM,72.9,65.8,79,30.03,10.0,SSE,4.6,-,N/A,,Mostly Cloudy,160,2013-08-31 05:55:00
2:15 AM,72.7,66.4,81,30.03,7.0,NNW,4.6,-,N/A,,Mostly Cloudy,340,2013-08-31 06:15:00
2:35 AM,69.3,66.9,92,30.03,3.0,South,3.5,-,N/A,,Scattered Clouds,180,2013-08-31 06:35:00
2:55 AM,72.0,66.4,83,30.03,10.0,South,3.5,-,N/A,,Mostly Cloudy,170,2013-08-31 06:55:00
3:15 AM,71.1,66.6,86,30.03,10.0,Calm,Calm,-,N/A,,Overcast,0,2013-08-31 07:15:00
3:35 AM,72.7,66.4,81,30.03,10.0,Calm,Calm,-,N/A,,Overcast,0,2013-08-31 07:35:00
3:55 AM,70.7,66.4,86,30.02,7.0,South,4.6,-,N/A,,Scattered Clouds,190,2013-08-31 07:55:00
4:15 AM,72.1,67.1,84,30.02,10.0,SW,5.8,-,N/A,,Scattered Clouds,230,2013-08-31 08:15:00
4:35 AM,72.1,67.8,86,30.03,10.0,SW,5.8,-,N/A,,Mostly Cloudy,230,2013-08-31 08:35:00
4:55 AM,72.5,68.7,88,30.02,7.0,SW,6.9,-,N/A,Thunderstorm,Overcast,230,2013-08-31 08:55:00
5:15 AM,72.5,69.3,90,30.03,5.0,WSW,4.6,-,N/A,,Overcast,240,2013-08-31 09:15:00
5:35 AM,72.7,69.3,89,30.03,5.0,SW,6.9,-,N/A,,Overcast,230,2013-08-31 09:35:00
5:55 AM,72.5,69.1,89,30.02,5.0,SSW,5.8,-,N/A,,Mostly Cloudy,210,2013-08-31 09:55:00
6:15 AM,71.8,68.9,91,30.03,4.0,WSW,6.9,-,N/A,,Scattered Clouds,240,2013-08-31 10:15:00
6:35 AM,71.2,68.9,92,30.03,3.0,WSW,3.5,-,N/A,,Mostly Cloudy,240,2013-08-31 10:35:00
6:55 AM,71.6,68.9,91,30.03,3.0,SW,3.5,-,N/A,,Overcast,230,2013-08-31 10:55:00
7:15 AM,71.2,68.9,92,30.03,2.0,WSW,4.6,-,N/A,,Overcast,240,2013-08-31 11:15:00
7:35 AM,71.6,68.9,91,30.03,2.5,SW,4.6,-,N/A,,Overcast,220,2013-08-31 11:35:00
7:55 AM,70.3,68.2,93,30.04,1.0,South,3.5,-,N/A,,Overcast,180,2013-08-31 11:55:00
8:15 AM,70.7,68.5,93,30.04,1.0,SSW,3.5,-,N/A,,Overcast,200,2013-08-31 12:15:00
8:35 AM,72.5,69.4,90,30.04,2.5,WSW,4.6,-,N/A,,Mostly Cloudy,250,2013-08-31 12:35:00
8:55 AM,73.4,69.4,87,30.05,3.0,WSW,9.2,-,N/A,,Overcast,250,2013-08-31 12:55:00
9:15 AM,73.6,69.8,88,30.05,3.0,West,8.1,-,N/A,,Overcast,260,2013-08-31 13:15:00
9:35 AM,73.6,70.0,88,30.06,3.0,WSW,6.9,-,N/A,,Overcast,250,2013-08-31 13:35:00
9:55 AM,74.3,70.2,87,30.06,4.0,Calm,Calm,-,N/A,,Overcast,0,2013-08-31 13:55:00
10:15 AM,75.4,70.7,85,30.06,4.0,WSW,6.9,-,N/A,,Haze,240,2013-08-31 14:15:00
10:35 AM,76.8,71.1,82,30.05,5.0,Calm,Calm,-,N/A,,Haze,0,2013-08-31 14:35:00
10:55 AM,77.2,71.2,82,30.06,5.0,Calm,Calm,-,N/A,,Haze,0,2013-08-31 14:55:00
11:15 AM,77.9,71.4,80,30.06,7.0,WSW,5.8,-,N/A,,Overcast,250,2013-08-31 15:15:00
11:35 AM,78.3,71.6,80,30.05,7.0,WSW,4.6,-,N/A,,Mostly Cloudy,250,2013-08-31 15:35:00
11:55 AM,79.0,72.0,79,30.05,7.0,West,8.1,-,N/A,,Overcast,260,2013-08-31 15:55:00
12:15 PM,79.7,71.6,76,30.04,7.0,WSW,4.6,-,N/A,Thunderstorm,Overcast,240,2013-08-31 16:15:00
12:35 PM,81.0,72.3,75,30.03,7.0,West,6.9,-,N/A,Thunderstorm,Mostly Cloudy,260,2013-08-31 16:35:00
12:55 PM,79.7,71.6,76,30.02,7.0,SW,3.5,-,N/A,Thunderstorm,Scattered Clouds,220,2013-08-31 16:55:00
1:15 PM,77.0,72.5,86,30.03,4.0,WSW,11.5,-,N/A,Rain-Thunderstorm,Thunderstorms and Rain,250,2013-08-31 17:15:00
1:35 PM,76.1,71.8,86,30.04,7.0,WSW,4.6,-,0.04,Rain-Thunderstorm,Light Thunderstorms and Rain,250,2013-08-31 17:35:00
1:55 PM,72.9,67.1,82,30.07,7.0,NNW,12.7,26.5,0.04,Thunderstorm,Thunderstorm,340,2013-08-31 17:55:00
2:15 PM,69.3,66.0,89,30.06,7.0,North,5.8,-,0.01,Rain,Light Rain,10,2013-08-31 18:15:00
2:35 PM,68.9,65.8,90,30.07,10.0,SSE,3.5,-,0.02,Rain-Thunderstorm,Light Thunderstorms and Rain,150,2013-08-31 18:35:00
2:55 PM,69.1,66.2,91,30.03,5.0,SE,6.9,-,0.02,,Mostly Cloudy,130,2013-08-31 18:55:00
3:15 PM,69.8,66.7,90,30.03,10.0,South,3.5,-,N/A,,Scattered Clouds,180,2013-08-31 19:15:00
3:35 PM,70.5,67.1,89,29.99,10.0,SSE,3.5,-,N/A,,Clear,150,2013-08-31 19:35:00
3:55 PM,72.5,67.3,84,30.01,10.0,NW,3.5,-,N/A,,Clear,310,2013-08-31 19:55:00
4:15 PM,73.9,66.2,77,30.00,10.0,West,3.5,-,N/A,,Scattered Clouds,260,2013-08-31 20:15:00
4:35 PM,76.1,66.7,73,30.00,10.0,NNW,4.6,-,N/A,,Clear,340,2013-08-31 20:35:00
4:55 PM,75.2,67.5,77,30.00,10.0,Calm,Calm,-,N/A,,Clear,0,2013-08-31 20:55:00
5:15 PM,77.0,66.6,70,29.99,10.0,Calm,Calm,-,N/A,,Clear,0,2013-08-31 21:15:00
5:35 PM,77.0,67.1,71,29.98,10.0,SSE,3.5,-,N/A,,Clear,160,2013-08-31 21:35:00
5:55 PM,77.0,66.4,70,29.97,10.0,Calm,Calm,-,N/A,,Clear,0,2013-08-31 21:55:00
6:15 PM,77.2,65.1,66,29.98,10.0,Calm,Calm,-,N/A,,Clear,0,2013-08-31 22:15:00
6:35 PM,77.2,63.7,63,29.99,10.0,Calm,Calm,-,N/A,,Clear,0,2013-08-31 22:35:00
6:55 PM,77.5,63.9,63,30.00,10.0,Calm,Calm,-,N/A,,Clear,0,2013-08-31 22:55:00
7:15 PM,75.7,64.4,68,30.01,10.0,Calm,Calm,-,N/A,,Clear,0,2013-08-31 23:15:00
7:35 PM,75.4,65.7,72,30.01,10.0,Calm,Calm,-,N/A,,Clear,0,2013-08-31 23:35:00
7:55 PM,75.2,66.4,74,30.01,10.0,Calm,Calm,-,N/A,,Clear,0,2013-08-31 23:55:00
8:15 PM,74.1,65.5,74,30.01,10.0,Calm,Calm,-,N/A,,Clear,0,2013-09-01 00:15:00
8:35 PM,73.6,65.8,77,30.00,10.0,SSE,3.5,-,N/A,,Clear,150,2013-09-01 00:35:00
8:55 PM,71.6,66.6,84,30.01,10.0,South,4.6,-,N/A,,Clear,170,2013-09-01 00:55:00
9:15 PM,72.7,65.8,79,30.01,10.0,South,4.6,-,N/A,,Clear,170,2013-09-01 01:15:00
9:35 PM,73.8,65.5,75,30.01,10.0,South,3.5,-,N/A,,Clear,170,2013-09-01 01:35:00
9:55 PM,71.6,66.4,84,30.01,10.0,South,4.6,-,N/A,,Clear,170,2013-09-01 01:55:00
10:15 PM,71.2,65.7,82,30.01,10.0,SSE,3.5,-,N/A,,Clear,160,2013-09-01 02:15:00
10:35 PM,71.2,65.7,82,30.00,10.0,SSE,3.5,-,N/A,,Clear,160,2013-09-01 02:35:00
10:55 PM,70.5,65.7,85,30.00,10.0,Calm,Calm,-,N/A,,Clear,0,2013-09-01 02:55:00
11:15 PM,72.3,64.4,76,30.00,10.0,South,3.5,-,N/A,,Clear,180,2013-09-01 03:15:00
11:35 PM,70.7,65.1,82,30.00,10.0,Calm,Calm,-,N/A,,Clear,0,2013-09-01 03:35:00
11:55 PM,70.7,65.3,83,30.00,10.0,South,3.5,-,N/A,,Clear,180,2013-09-01 03:55:00